KINEIS-1E

导读

KINEIS-1E卫星于2024年6月20日由法国发射,KINEIS是法国致力于物联网卫星星座建设的项目,KINEIS-1E属于该星座组网卫星,旨在为全球范围内的低功耗物联网设备提供连接服务,可满足资产追踪、环境监测等多领域物联网应用需求,推进全球万物互联的卫星物联网生态构建。

Basic Information
目录编号:
60083
目录名称:
KINEIS-1E
国际标识:
2024-114E
轨道中心:
EARTH
卫星名称:
KINEIS-1E
卫星全名:
--
卫星状态:
在轨 (已飞行807 天)
发射日期:
2024-06-20 UTC
国别 :
法国 (FR)
星等 :
--
Orbit Information
数据来源 国际轨道数据
星历时间: 2026-09-05T12:21:52+0800
5小时前
查看轨道信息
半长轴: 7005.063km
偏心率: 0.0001713
轨道倾角: 97.894°
近地点辐角 344.645°
升交点赤经 270.346°
平近点角 15.471°
近地点: 625.726km
远地点: 628.126km
周期: 97.247分钟
每日圈数: 14.807603
Detailed Information
使用方式:
暂无
2D Orbit Map
3D Orbit Map
Orbit Altitude Analysis Chart
Orbit Inclination Analysis Chart
Orbit Comprehensive Analysis Chart
View Comprehensive Chart
Conjunction Data List
Event ID Objects TCA Miss Dist (km) Collision Risk Probability Collision Risk Index (CRI) Action
CDM_260905-200103-504306-008324
2026-09-05T
20:01:42+0000
1.153 km
极远距离
8.47803E-6 低风险 0.54
CDM_260905-045903-942906-008323
DOVE 3 (39429)
2026-09-05T
04:59:17+0000
1.412 km
极远距离
8.231361E-6 低风险 0.53
CDM_260905-104006-008306-892424
2026-09-05T
10:40:32+0000
1.507 km
极远距离
6.386439E-6 低风险 0.51
CDM_260905-072206-008306-713622
2026-09-05T
07:22:41+0000
1.761 km
极远距离
3.237575E-6 低风险 0.45